Time,TemperatureF,DewpointF,PressureIn,WindDirection,WindDirectionDegrees,WindSpeedMPH,WindSpeedGustMPH,Humidity,HourlyPrecipIn,Conditions,Clouds,dailyrainin,SoftwareType,DateUTC
2013-01-27 00:00:00,70.8,70.8,30.10,NE,41,0.0,0.0,100,0.00,,,0.00,Wunderground v.1.15,2013-01-27 05:00:00,
2013-01-27 00:05:00,70.8,70.8,30.10,NE,41,0.0,0.0,100,0.00,,,0.00,Wunderground v.1.15,2013-01-27 05:05:00,
2013-01-27 00:15:00,70.8,70.8,30.10,NE,41,0.0,1.0,100,0.00,,,0.00,Wunderground v.1.15,2013-01-27 05:15:00,
2013-01-27 00:20:00,70.8,70.8,30.10,NE,41,0.0,0.0,100,0.00,,,0.00,Wunderground v.1.15,2013-01-27 05:20:00,
2013-01-27 00:30:00,70.9,70.9,30.10,NE,38,1.0,1.0,100,0.00,,,0.00,Wunderground v.1.15,2013-01-27 05:30:00,
2013-01-27 00:40:00,70.8,70.8,30.10,NNE,21,1.0,1.0,100,0.00,,,0.00,Wunderground v.1.15,2013-01-27 05:40:00,
2013-01-27 00:45:00,70.6,70.6,30.10,NNE,20,2.0,2.0,100,0.00,,,0.00,Wunderground v.1.15,2013-01-27 05:45:00,
2013-01-27 00:50:00,70.8,70.8,30.10,NNE,18,2.0,5.0,100,0.00,,,0.00,Wunderground v.1.15,2013-01-27 05:50:00,
2013-01-27 01:00:00,70.8,70.8,30.10,North,8,3.0,3.0,100,0.00,,,0.00,Wunderground v.1.15,2013-01-27 06:00:00,
2013-01-27 01:10:00,70.8,70.8,30.10,North,8,1.0,1.0,100,0.00,,,0.00,Wunderground v.1.15,2013-01-27 06:10:00,
2013-01-27 01:20:00,70.8,70.8,30.10,North,8,1.0,1.0,100,0.00,,,0.00,Wunderground v.1.15,2013-01-27 06:20:00,
2013-01-27 01:30:00,70.8,70.8,30.10,North,10,2.0,2.0,100,0.00,,,0.00,Wunderground v.1.15,2013-01-27 06:30:00,
2013-01-27 01:40:00,70.6,70.6,30.10,North,11,2.0,4.0,100,0.00,,,0.00,Wunderground v.1.15,2013-01-27 06:40:00,
2013-01-27 01:45:00,70.6,70.6,30.10,NNE,14,3.0,4.0,100,0.00,,,0.00,Wunderground v.1.15,2013-01-27 06:45:00,
2013-01-27 01:55:00,70.6,70.6,30.10,NNE,16,2.0,3.0,100,0.00,,,0.00,Wunderground v.1.15,2013-01-27 06:55:00,
2013-01-27 02:05:00,70.6,70.6,30.09,North,11,2.0,6.0,100,0.00,,,0.00,Wunderground v.1.15,2013-01-27 07:05:00,
2013-01-27 02:15:00,70.6,70.6,30.09,NE,48,3.0,7.0,100,0.00,,,0.00,Wunderground v.1.15,2013-01-27 07:15:00,
2013-01-27 02:25:00,70.8,70.8,30.09,NE,47,2.0,3.0,100,0.00,,,0.00,Wunderground v.1.15,2013-01-27 07:25:00,
2013-01-27 02:30:00,70.8,70.8,30.09,NNE,27,2.0,2.0,100,0.00,,,0.00,Wunderground v.1.15,2013-01-27 07:30:00,
2013-01-27 02:35:00,70.8,70.8,30.09,NNE,23,1.0,2.0,100,0.00,,,0.00,Wunderground v.1.15,2013-01-27 07:35:00,
2013-01-27 02:45:00,70.9,70.9,30.08,NNE,27,1.0,1.0,100,0.00,,,0.00,Wunderground v.1.15,2013-01-27 07:45:00,
2013-01-27 03:05:00,71.3,71.3,30.08,NNE,23,1.0,3.0,100,0.00,,,0.00,Wunderground v.1.15,2013-01-27 08:05:00,
2013-01-27 03:15:00,71.3,71.3,30.08,NNE,16,1.0,2.0,100,0.00,,,0.00,Wunderground v.1.15,2013-01-27 08:15:00,
2013-01-27 03:25:00,71.3,71.3,30.08,NNE,18,2.0,2.0,100,0.00,,,0.00,Wunderground v.1.15,2013-01-27 08:25:00,
2013-01-27 03:35:00,71.1,71.1,30.08,NNE,20,1.0,2.0,100,0.00,,,0.00,Wunderground v.1.15,2013-01-27 08:35:00,
2013-01-27 03:45:00,71.1,71.1,30.07,NNE,13,2.0,6.0,100,0.00,,,0.00,Wunderground v.1.15,2013-01-27 08:45:00,
2013-01-27 03:55:00,71.1,71.1,30.07,NE,56,2.0,7.0,100,0.00,,,0.00,Wunderground v.1.15,2013-01-27 08:55:00,
2013-01-27 04:05:00,71.1,71.1,30.07,NE,51,3.0,3.0,100,0.00,,,0.00,Wunderground v.1.15,2013-01-27 09:05:00,
2013-01-27 04:15:00,71.1,71.1,30.07,NNE,23,1.0,2.0,100,0.00,,,0.00,Wunderground v.1.15,2013-01-27 09:15:00,
2013-01-27 04:25:00,71.1,71.1,30.07,NNE,13,2.0,5.0,100,0.00,,,0.00,Wunderground v.1.15,2013-01-27 09:25:00,
2013-01-27 04:35:00,71.1,71.1,30.07,NNE,24,2.0,3.0,100,0.00,,,0.00,Wunderground v.1.15,2013-01-27 09:35:00,
2013-01-27 04:45:00,71.1,71.1,30.07,NE,40,2.0,5.0,100,0.00,,,0.00,Wunderground v.1.15,2013-01-27 09:45:00,
2013-01-27 04:55:00,71.1,71.1,30.07,NNE,28,2.0,2.0,100,0.00,,,0.00,Wunderground v.1.15,2013-01-27 09:55:00,
2013-01-27 05:05:00,71.1,71.1,30.07,NNE,23,2.0,2.0,100,0.00,,,0.00,Wunderground v.1.15,2013-01-27 10:05:00,
2013-01-27 05:10:00,71.1,71.1,30.07,NNE,14,1.0,1.0,100,0.00,,,0.00,Wunderground v.1.15,2013-01-27 10:10:00,
2013-01-27 05:20:00,71.1,71.1,30.07,NE,52,2.0,5.0,100,0.00,,,0.00,Wunderground v.1.15,2013-01-27 10:20:00,
2013-01-27 05:30:00,71.1,71.1,30.08,NNE,18,2.0,2.0,100,0.00,,,0.00,Wunderground v.1.15,2013-01-27 10:30:00,
2013-01-27 05:40:00,71.1,71.1,30.08,NNE,21,3.0,3.0,100,0.00,,,0.00,Wunderground v.1.15,2013-01-27 10:40:00,
2013-01-27 05:50:00,71.1,71.1,30.08,North,6,4.0,10.0,100,0.00,,,0.00,Wunderground v.1.15,2013-01-27 10:50:00,
2013-01-27 06:00:00,71.1,71.1,30.09,North,11,3.0,10.0,100,0.00,,,0.00,Wunderground v.1.15,2013-01-27 11:00:00,
2013-01-27 06:10:00,71.1,71.1,30.09,NNE,13,3.0,5.0,100,0.00,,,0.00,Wunderground v.1.15,2013-01-27 11:10:00,
2013-01-27 06:15:00,70.9,70.9,30.09,North,8,4.0,5.0,100,0.00,,,0.00,Wunderground v.1.15,2013-01-27 11:15:00,
2013-01-27 06:25:00,70.9,70.9,30.09,NNE,13,3.0,4.0,100,0.00,,,0.00,Wunderground v.1.15,2013-01-27 11:25:00,
2013-01-27 06:30:00,70.9,70.9,30.09,NNE,21,3.0,3.0,100,0.00,,,0.00,Wunderground v.1.15,2013-01-27 11:30:00,
2013-01-27 06:40:00,70.8,70.8,30.09,NE,44,4.0,6.0,100,0.00,,,0.00,Wunderground v.1.15,2013-01-27 11:40:00,
2013-01-27 06:50:00,70.8,70.8,30.10,North,8,4.0,4.0,100,0.00,,,0.00,Wunderground v.1.15,2013-01-27 11:50:00,
2013-01-27 07:00:00,70.8,70.8,30.10,North,10,4.0,4.0,100,0.00,,,0.00,Wunderground v.1.15,2013-01-27 12:00:00,
2013-01-27 07:10:00,70.8,70.8,30.10,NNE,18,1.0,1.0,100,0.00,,,0.00,Wunderground v.1.15,2013-01-27 12:10:00,
2013-01-27 07:20:00,70.8,70.8,30.10,ENE,58,0.0,3.0,100,0.00,,,0.00,Wunderground v.1.15,2013-01-27 12:20:00,
2013-01-27 07:30:00,70.8,70.8,30.11,NNE,16,3.0,3.0,100,0.00,,,0.00,Wunderground v.1.15,2013-01-27 12:30:00,
2013-01-27 07:40:00,70.9,70.9,30.11,North,10,3.0,8.0,100,0.00,,,0.00,Wunderground v.1.15,2013-01-27 12:40:00,
2013-01-27 07:50:00,70.9,70.9,30.11,NE,56,4.0,4.0,100,0.00,,,0.00,Wunderground v.1.15,2013-01-27 12:50:00,
2013-01-27 08:00:00,71.1,71.1,30.11,NNE,21,2.0,5.0,100,0.00,,,0.00,Wunderground v.1.15,2013-01-27 13:00:00,
2013-01-27 08:10:00,71.3,71.3,30.11,NNE,14,3.0,5.0,100,0.00,,,0.00,Wunderground v.1.15,2013-01-27 13:10:00,
2013-01-27 08:20:00,71.3,71.3,30.12,ENE,65,4.0,4.0,100,0.00,,,0.00,Wunderground v.1.15,2013-01-27 13:20:00,
2013-01-27 08:30:00,71.5,71.5,30.12,North,7,4.0,5.0,100,0.00,,,0.00,Wunderground v.1.15,2013-01-27 13:30:00,
2013-01-27 08:40:00,71.6,71.6,30.12,NNE,21,3.0,3.0,100,0.00,,,0.00,Wunderground v.1.15,2013-01-27 13:40:00,
2013-01-27 08:50:00,72.0,72.0,30.12,NE,49,3.0,3.0,100,0.00,,,0.00,Wunderground v.1.15,2013-01-27 13:50:00,
2013-01-27 09:00:00,72.5,72.5,30.13,ENE,61,2.0,6.0,100,0.00,,,0.00,Wunderground v.1.15,2013-01-27 14:00:00,
2013-01-27 09:05:00,72.7,72.7,30.13,NE,42,2.0,6.0,100,0.00,,,0.00,Wunderground v.1.15,2013-01-27 14:05:00,
2013-01-27 09:15:00,73.0,73.0,30.14,NNE,28,3.0,8.0,100,0.00,,,0.00,Wunderground v.1.15,2013-01-27 14:15:00,
2013-01-27 09:25:00,72.8,72.8,30.14,NNE,18,3.0,4.0,100,0.00,,,0.00,Wunderground v.1.15,2013-01-27 14:25:00,
2013-01-27 09:35:00,73.0,73.0,30.14,NE,34,2.0,6.0,100,0.00,,,0.00,Wunderground v.1.15,2013-01-27 14:35:00,
2013-01-27 09:45:00,73.2,73.2,30.14,NNE,32,3.0,3.0,100,0.00,,,0.00,Wunderground v.1.15,2013-01-27 14:45:00,
2013-01-27 09:50:00,73.5,73.5,30.14,ENE,73,3.0,3.0,100,0.00,,,0.00,Wunderground v.1.15,2013-01-27 14:50:00,
2013-01-27 10:00:00,74.2,74.2,30.15,ENE,78,6.0,6.0,100,0.00,,,0.00,Wunderground v.1.15,2013-01-27 15:00:00,
2013-01-27 10:05:00,74.6,74.6,30.15,NE,37,6.0,6.0,100,0.00,,,0.00,Wunderground v.1.15,2013-01-27 15:05:00,
2013-01-27 10:15:00,74.7,74.7,30.15,NE,52,5.0,6.0,100,0.00,,,0.00,Wunderground v.1.15,2013-01-27 15:15:00,
2013-01-27 10:20:00,75.1,75.1,30.15,NE,44,4.0,4.0,100,0.00,,,0.00,Wunderground v.1.15,2013-01-27 15:20:00,
2013-01-27 10:25:00,74.9,74.9,30.15,ENE,65,5.0,5.0,100,0.00,,,0.00,Wunderground v.1.15,2013-01-27 15:25:00,
2013-01-27 10:35:00,74.9,74.9,30.15,NE,49,5.0,5.0,100,0.00,,,0.00,Wunderground v.1.15,2013-01-27 15:35:00,
2013-01-27 10:40:00,74.9,74.9,30.15,NE,49,5.0,8.0,100,0.00,,,0.00,Wunderground v.1.15,2013-01-27 15:40:00,
2013-01-27 10:50:00,74.7,74.7,30.15,ENE,66,7.0,7.0,100,0.00,,,0.00,Wunderground v.1.15,2013-01-27 15:50:00,
2013-01-27 11:00:00,74.7,74.7,30.15,ENE,75,8.0,8.0,100,0.00,,,0.00,Wunderground v.1.15,2013-01-27 16:00:00,
2013-01-27 11:10:00,74.7,74.7,30.15,ENE,66,8.0,9.0,100,0.00,,,0.00,Wunderground v.1.15,2013-01-27 16:10:00,
2013-01-27 11:20:00,74.6,74.6,30.15,ENE,68,7.0,8.0,100,0.00,,,0.00,Wunderground v.1.15,2013-01-27 16:20:00,
2013-01-27 11:30:00,74.6,74.6,30.15,NE,54,8.0,8.0,100,0.00,,,0.00,Wunderground v.1.15,2013-01-27 16:30:00,
2013-01-27 11:40:00,74.7,74.7,30.15,ENE,75,7.0,7.0,100,0.00,,,0.00,Wunderground v.1.15,2013-01-27 16:40:00,
2013-01-27 11:50:00,74.9,74.9,30.15,NE,52,7.0,7.0,100,0.00,,,0.00,Wunderground v.1.15,2013-01-27 16:50:00,
2013-01-27 12:00:00,74.9,74.9,30.15,ENE,69,9.0,9.0,100,0.00,,,0.00,Wunderground v.1.15,2013-01-27 17:00:00,
2013-01-27 12:10:00,74.9,74.9,30.15,NE,51,8.0,8.0,100,0.00,,,0.00,Wunderground v.1.15,2013-01-27 17:10:00,
2013-01-27 12:20:00,74.9,74.9,30.15,ENE,65,10.0,10.0,100,0.00,,,0.00,Wunderground v.1.15,2013-01-27 17:20:00,
2013-01-27 12:25:00,75.1,75.1,30.15,ENE,58,9.0,10.0,100,0.00,,,0.00,Wunderground v.1.15,2013-01-27 17:25:00,
2013-01-27 12:35:00,75.1,75.1,30.14,ENE,61,8.0,12.0,100,0.00,,,0.00,Wunderground v.1.15,2013-01-27 17:35:00,
2013-01-27 12:45:00,74.9,74.9,30.14,ENE,64,8.0,10.0,100,0.00,,,0.00,Wunderground v.1.15,2013-01-27 17:45:00,
2013-01-27 12:55:00,74.9,74.9,30.14,ENE,68,10.0,14.0,100,0.00,,,0.00,Wunderground v.1.15,2013-01-27 17:55:00,
2013-01-27 13:05:00,75.1,75.1,30.13,ENE,64,9.0,12.0,100,0.00,,,0.00,Wunderground v.1.15,2013-01-27 18:05:00,
2013-01-27 13:15:00,75.3,75.3,30.12,NE,42,9.0,12.0,100,0.00,,,0.00,Wunderground v.1.15,2013-01-27 18:15:00,
2013-01-27 13:25:00,75.6,75.6,30.12,NNE,31,10.0,10.0,100,0.00,,,0.00,Wunderground v.1.15,2013-01-27 18:25:00,
2013-01-27 13:30:00,75.6,75.6,30.12,ENE,61,9.0,12.0,100,0.00,,,0.00,Wunderground v.1.15,2013-01-27 18:30:00,
2013-01-27 13:40:00,75.4,75.4,30.12,ENE,75,9.0,9.0,100,0.00,,,0.00,Wunderground v.1.15,2013-01-27 18:40:00,
2013-01-27 13:50:00,75.6,75.6,30.11,ENE,64,9.0,9.0,100,0.00,,,0.00,Wunderground v.1.15,2013-01-27 18:50:00,
2013-01-27 13:55:00,75.3,75.3,30.11,ENE,64,9.0,12.0,100,0.00,,,0.00,Wunderground v.1.15,2013-01-27 18:55:00,
2013-01-27 14:05:00,75.3,75.3,30.11,NE,54,10.0,16.0,100,0.00,,,0.00,Wunderground v.1.15,2013-01-27 19:05:00,
2013-01-27 14:15:00,75.6,75.6,30.10,ENE,58,11.0,14.0,100,0.00,,,0.00,Wunderground v.1.15,2013-01-27 19:15:00,
2013-01-27 14:25:00,75.6,75.6,30.10,ENE,78,11.0,14.0,100,0.00,,,0.00,Wunderground v.1.15,2013-01-27 19:25:00,
2013-01-27 14:30:00,75.8,75.8,30.10,NE,56,12.0,13.0,100,0.00,,,0.00,Wunderground v.1.15,2013-01-27 19:30:00,
2013-01-27 14:40:00,75.8,75.8,30.10,NE,47,11.0,12.0,100,0.00,,,0.00,Wunderground v.1.15,2013-01-27 19:40:00,
2013-01-27 14:50:00,75.6,75.6,30.09,NE,55,12.0,18.0,100,0.00,,,0.00,Wunderground v.1.15,2013-01-27 19:50:00,
2013-01-27 15:00:00,75.8,75.8,30.09,ENE,69,12.0,16.0,100,0.00,,,0.00,Wunderground v.1.15,2013-01-27 20:00:00,
2013-01-27 15:05:00,76.0,76.0,30.09,ENE,75,11.0,16.0,100,0.00,,,0.00,Wunderground v.1.15,2013-01-27 20:05:00,
2013-01-27 15:15:00,75.8,75.8,30.09,ENE,72,11.0,12.0,100,0.00,,,0.00,Wunderground v.1.15,2013-01-27 20:15:00,
2013-01-27 15:25:00,76.0,76.0,30.09,ENE,64,10.0,11.0,100,0.00,,,0.00,Wunderground v.1.15,2013-01-27 20:25:00,
2013-01-27 15:35:00,75.6,75.6,30.09,NE,44,11.0,11.0,100,0.00,,,0.00,Wunderground v.1.15,2013-01-27 20:35:00,
2013-01-27 15:45:00,75.8,75.8,30.09,ENE,69,10.0,11.0,100,0.00,,,0.00,Wunderground v.1.15,2013-01-27 20:45:00,
2013-01-27 15:50:00,75.6,75.6,30.09,East,83,10.0,10.0,100,0.00,,,0.00,Wunderground v.1.15,2013-01-27 20:50:00,
2013-01-27 16:00:00,75.6,75.6,30.09,NE,48,9.0,16.0,100,0.00,,,0.00,Wunderground v.1.15,2013-01-27 21:00:00,
2013-01-27 16:05:00,75.6,75.6,30.09,ENE,73,10.0,16.0,100,0.00,,,0.00,Wunderground v.1.15,2013-01-27 21:05:00,
2013-01-27 16:15:00,75.3,75.3,30.10,East,83,10.0,12.0,100,0.00,,,0.00,Wunderground v.1.15,2013-01-27 21:15:00,
2013-01-27 16:20:00,75.3,75.3,30.10,ESE,106,9.0,9.0,100,0.00,,,0.00,Wunderground v.1.15,2013-01-27 21:20:00,
2013-01-27 16:25:00,74.9,74.9,30.10,ENE,71,10.0,12.0,100,0.00,,,0.00,Wunderground v.1.15,2013-01-27 21:25:00,
2013-01-27 16:35:00,74.7,74.7,30.10,East,83,10.0,13.0,100,0.00,,,0.00,Wunderground v.1.15,2013-01-27 21:35:00,
2013-01-27 16:45:00,74.7,74.7,30.11,ENE,64,10.0,10.0,100,0.00,,,0.00,Wunderground v.1.15,2013-01-27 21:45:00,
2013-01-27 16:55:00,74.9,74.9,30.11,NE,56,10.0,10.0,100,0.00,,,0.00,Wunderground v.1.15,2013-01-27 21:55:00,
2013-01-27 17:05:00,74.9,74.9,30.11,ENE,65,9.0,12.0,100,0.00,,,0.00,Wunderground v.1.15,2013-01-27 22:05:00,
2013-01-27 17:15:00,74.7,74.7,30.12,ENE,62,9.0,11.0,100,0.00,,,0.00,Wunderground v.1.15,2013-01-27 22:15:00,
2013-01-27 17:25:00,74.6,74.6,30.12,ESE,110,10.0,15.0,100,0.00,,,0.00,Wunderground v.1.15,2013-01-27 22:25:00,
2013-01-27 17:35:00,74.4,74.4,30.12,ENE,71,10.0,10.0,100,0.00,,,0.00,Wunderground v.1.15,2013-01-27 22:35:00,
2013-01-27 17:45:00,74.2,74.2,30.13,ENE,71,9.0,11.0,100,0.00,,,0.00,Wunderground v.1.15,2013-01-27 22:45:00,
2013-01-27 17:55:00,74.2,74.2,30.13,NE,56,8.0,14.0,100,0.00,,,0.00,Wunderground v.1.15,2013-01-27 22:55:00,
2013-01-27 18:05:00,74.2,74.2,30.13,NE,56,10.0,16.0,100,0.00,,,0.00,Wunderground v.1.15,2013-01-27 23:05:00,
2013-01-27 18:15:00,74.4,74.4,30.13,ENE,71,8.0,9.0,100,0.00,,,0.00,Wunderground v.1.15,2013-01-27 23:15:00,
2013-01-27 18:25:00,74.2,74.2,30.13,ENE,72,9.0,10.0,100,0.00,,,0.00,Wunderground v.1.15,2013-01-27 23:25:00,
2013-01-27 18:35:00,74.4,74.4,30.13,East,80,10.0,11.0,100,0.00,,,0.00,Wunderground v.1.15,2013-01-27 23:35:00,
2013-01-27 18:45:00,74.2,74.2,30.14,ENE,73,9.0,13.0,100,0.00,,,0.00,Wunderground v.1.15,2013-01-27 23:45:00,
2013-01-27 18:55:00,74.0,74.0,30.14,ENE,72,9.0,10.0,100,0.00,,,0.00,Wunderground v.1.15,2013-01-27 23:55:00,
2013-01-27 19:05:00,73.9,73.9,30.14,ENE,64,8.0,11.0,100,0.00,,,0.00,Wunderground v.1.15,2013-01-28 00:05:00,
2013-01-27 19:15:00,73.9,73.9,30.14,East,88,8.0,11.0,100,0.00,,,0.00,Wunderground v.1.15,2013-01-28 00:15:00,
2013-01-27 19:20:00,73.9,73.9,30.14,NE,56,8.0,14.0,100,0.00,,,0.00,Wunderground v.1.15,2013-01-28 00:20:00,
2013-01-27 19:30:00,73.7,73.7,30.14,ENE,72,9.0,16.0,100,0.00,,,0.00,Wunderground v.1.15,2013-01-28 00:30:00,
2013-01-27 19:40:00,73.7,73.7,30.14,ENE,73,8.0,8.0,100,0.00,,,0.00,Wunderground v.1.15,2013-01-28 00:40:00,
2013-01-27 19:50:00,73.7,73.7,30.14,ENE,68,9.0,12.0,100,0.00,,,0.00,Wunderground v.1.15,2013-01-28 00:50:00,
2013-01-27 19:55:00,73.7,73.7,30.14,ENE,73,9.0,12.0,100,0.00,,,0.00,Wunderground v.1.15,2013-01-28 00:55:00,
2013-01-27 20:05:00,73.7,73.7,30.14,ENE,65,9.0,9.0,100,0.00,,,0.00,Wunderground v.1.15,2013-01-28 01:05:00,
2013-01-27 20:10:00,73.7,73.7,30.14,ENE,72,8.0,8.0,100,0.00,,,0.00,Wunderground v.1.15,2013-01-28 01:10:00,
2013-01-27 20:20:00,73.7,73.7,30.15,ENE,58,9.0,12.0,100,0.00,,,0.00,Wunderground v.1.15,2013-01-28 01:20:00,
2013-01-27 20:30:00,73.7,73.7,30.15,ENE,59,10.0,11.0,100,0.00,,,0.00,Wunderground v.1.15,2013-01-28 01:30:00,
2013-01-27 20:40:00,73.7,73.7,30.15,NE,51,11.0,11.0,100,0.00,,,0.00,Wunderground v.1.15,2013-01-28 01:40:00,
2013-01-27 20:50:00,73.7,73.7,30.15,ENE,76,10.0,10.0,100,0.00,,,0.00,Wunderground v.1.15,2013-01-28 01:50:00,
2013-01-27 21:00:00,73.7,73.7,30.15,East,79,9.0,9.0,100,0.00,,,0.00,Wunderground v.1.15,2013-01-28 02:00:00,
2013-01-27 21:10:00,73.7,73.7,30.15,ENE,68,9.0,9.0,100,0.00,,,0.00,Wunderground v.1.15,2013-01-28 02:10:00,
2013-01-27 21:20:00,73.5,73.5,30.15,ENE,71,8.0,10.0,100,0.00,,,0.00,Wunderground v.1.15,2013-01-28 02:20:00,
2013-01-27 21:25:00,73.7,73.7,30.15,NNE,20,10.0,12.0,100,0.00,,,0.00,Wunderground v.1.15,2013-01-28 02:25:00,
2013-01-27 21:35:00,73.7,73.7,30.15,ENE,65,10.0,13.0,100,0.00,,,0.00,Wunderground v.1.15,2013-01-28 02:35:00,
2013-01-27 21:45:00,73.7,73.7,30.15,NE,54,10.0,10.0,100,0.00,,,0.00,Wunderground v.1.15,2013-01-28 02:45:00,
2013-01-27 21:50:00,73.9,73.9,30.15,East,93,10.0,11.0,100,0.00,,,0.00,Wunderground v.1.15,2013-01-28 02:50:00,
2013-01-27 22:00:00,73.9,73.9,30.15,ENE,58,10.0,10.0,100,0.00,,,0.00,Wunderground v.1.15,2013-01-28 03:00:00,
2013-01-27 22:10:00,73.9,73.9,30.15,ENE,78,10.0,12.0,100,0.00,,,0.00,Wunderground v.1.15,2013-01-28 03:10:00,
2013-01-27 22:20:00,74.0,74.0,30.15,ENE,61,11.0,12.0,100,0.00,,,0.00,Wunderground v.1.15,2013-01-28 03:20:00,
2013-01-27 22:30:00,74.0,74.0,30.15,ENE,61,9.0,9.0,100,0.00,,,0.00,Wunderground v.1.15,2013-01-28 03:30:00,
2013-01-27 22:40:00,74.0,74.0,30.15,ENE,66,8.0,12.0,100,0.00,,,0.00,Wunderground v.1.15,2013-01-28 03:40:00,
2013-01-27 22:50:00,74.2,74.2,30.15,ENE,73,10.0,14.0,100,0.00,,,0.00,Wunderground v.1.15,2013-01-28 03:50:00,
2013-01-27 23:00:00,74.4,74.4,30.15,East,82,11.0,13.0,100,0.00,,,0.00,Wunderground v.1.15,2013-01-28 04:00:00,
2013-01-27 23:10:00,74.4,74.4,30.15,ENE,71,11.0,12.0,100,0.00,,,0.00,Wunderground v.1.15,2013-01-28 04:10:00,
2013-01-27 23:20:00,74.6,74.6,30.15,ENE,69,11.0,11.0,100,0.00,,,0.00,Wunderground v.1.15,2013-01-28 04:20:00,
2013-01-27 23:25:00,74.6,74.6,30.15,East,89,11.0,11.0,100,0.00,,,0.00,Wunderground v.1.15,2013-01-28 04:25:00,
2013-01-27 23:35:00,74.4,74.4,30.14,ENE,59,10.0,10.0,100,0.00,,,0.00,Wunderground v.1.15,2013-01-28 04:35:00,
2013-01-27 23:45:00,74.6,74.6,30.14,NE,56,11.0,16.0,100,0.00,,,0.00,Wunderground v.1.15,2013-01-28 04:45:00,
2013-01-27 23:55:00,74.6,74.6,30.14,ESE,104,10.0,11.0,100,0.00,,,0.00,Wunderground v.1.15,2013-01-28 04:55:00,